NOAA 16 DEB

Satellite information

Favourite Embed

Satellite Type and Status

DEBRISIN ORBIT

Key statistics

Satellite NOAA 16 DEB at a glance.

Uptime

9215

Days in orbit

Revolutions

≈ 14.3

Per day

Orbit

SSO

Sun Synchronous Orbit

Inclination

98.6

Latest

Satellite identification and parameters

Extended collection of information and parameters for NOAA 16 DEB.

Object identification

Identified? True

Debris? True

Object name: NOAA 16 DEB

International designator: 2000-055FQ

Object number (NORAD): 41264

Object ID (CCSDS): 41264

Country: UNITED STATES OF AMERICA (US)

Current information (Y/N): Y

RCS size: SMALL

Orbital parameters

Period: 100.966 minutes

Inclination: 98.638 deg

SMA: 7182.516 km

Apoapsis: 806.021 km

Periapsis: 802.741 km

RAAN: 39.233 deg

Eccentricy: 0.00022827

Argument of periapsis: 254.0653 deg

Mean anomaly: 106.0275 deg

Mean motion: 14.26224393 rev/day

Mean motion (dot): 0.00005801 rev/day2

B* drag term: 0.0024368355 1/REarth

Two-line elements (TLE)

Creation date: Dec. 13, 2025, 4:32 a.m.

Reference frame: TEME

Reference center: EARTH

Epoch: Dec. 12, 2025, 10:04 a.m. UTC

TLE line 0: 0 NOAA 16 DEB

TLE line 1: 1 41264U 00055FQ 25346.42003962 .00005801 00000-0 24368-2 0 9992

TLE line 2: 2 41264 98.6380 39.2330 0002283 254.0653 106.0275 14.26224393515191

Live tracking on map

Real-time ground track for satellite NOAA 16 DEB.

In-orbit conjunctions

A list of the most updated potential collisions computed for object NOAA 16 DEB.

Target Orbit TCA Probability of collision Miss distance Type
FENGYUN 1C DEB SSO 2025-11-03 19:17:16 0.0005439913 66.0 (m) DEBRIS
NOAA 16 DEB SSO 2025-07-10 19:18:48 0.0003561568 130.0 (m) DEBRIS
CZ-6A DEB LEO 2025-05-11 12:20:08 0.0001195615 127.0 (m) DEBRIS
SL-16 DEB LEO 2024-11-26 12:19:35 0.0001554151 192.0 (m) DEBRIS

Associated space launch

The NOAA K, L and M POES satellites begin the fifth generation of improved environmental monitoring in support of NOAA missions. The instrument payload has significant improvements and additions/deletions. The instrument changes have effected the spacecraft subsystems and data formats.

NOAA 16 DEB was lifted into orbit during the mission ‘Titan II SLV | NOAA 16’, on board a Titan II SLV space rocket.

The launch took place on Sept. 21, 2000, 10:22 a.m. from Space Launch Complex 4W.

For more information about the launch, click the button.

Launch to space Titan II SLV | NOAA 16
Titan II SLV | NOAA 16

Agency: N/A

Status: Launch Successful

Launch date: Sept. 21, 2000, 10:22 a.m. UTC

Rocket: Titan II SLV

Launch pad: Space Launch Complex 4W

Location: Vandenberg SFB, CA, USA

...

Latest news about this satellite

There are no fresh news available about this satellite. Check back as we update our databases every day.


Newsletter sign-up

Weekly statistics, charts and insights to help you stay on top of the space industry.